Regional Weather Roundup
Issued by NWS

Home | Current Version | Previous Version | Graphics & Text | Print | Product List | Glossary On
Versions: 1 2 3 4 5 6 7 8 9 10 11 12 13 14 15 16 17 18 19 20 21 22 23 24 25 26 27 28 29 30 31 32 33 34 35 36 37 38 39 40 41 42 43 44 45 46 47 48 49 50
000
ASUS43 KLSX 131207
RWRMO

WEATHER SUMMARY FOR MISSOURI
NATIONAL WEATHER SERVICE SPRINGFIELD MO
600 AM CST WED DEC 13 2017

NOTE: "FAIR" INDICATES FEW OR NO CLOUDS BELOW 12,000 FEET WITH NO
       SIGNIFICANT WEATHER AND/OR OBSTRUCTIONS TO VISIBILITY.
       CURRENT SKY AND/OR WEATHER CONDITIONS ARE NOT AVAILABLE FOR
       CHILLICOTHE AND FARMINGTON.

MOZ001>031-035>038-043-044-053-054-131300-
...NORTHERN AND WESTERN MISSOURI...

CITY           SKY/WX    TMP DP  RH WIND       PRES   REMARKS
KANSAS CTY INT CLEAR     36  27  69 SW13      29.69R WCI  27
6HR MIN TEMP:  35; 6HR MAX TEMP:  37;

KANSAS C DTWN  CLEAR     39  26  59 SW13      29.70S
6HR MIN TEMP:  36; 6HR MAX TEMP:  41;

LEE`S SUMMIT   CLEAR     37  27  67 W14       29.71S WCI  28
6HR MIN TEMP:  32; 6HR MAX TEMP:  37;

ST JOSEPH      CLEAR     34  27  75 SW6       29.69S WCI  29
6HR MIN TEMP:  28; 6HR MAX TEMP:  36;

CHILLICOTHE      N/A     34  26  72 SW9G18    29.66S WCI  27
6HR MIN TEMP:  30; 6HR MAX TEMP:  34;

KIRKSVILLE     CLEAR     32  30  92 SW15      29.60F WCI  22
6HR MIN TEMP:  28; 6HR MAX TEMP:  32;


$$
MOZ066>068-077>081-088>096-101>105-131300-
...SOUTHWEST MISSOURI...

CITY           SKY/WX    TMP DP  RH WIND       PRES   REMARKS
SPRINGFIELD    CLEAR     32  21  64 S14       29.82F WCI  22
6HR MIN TEMP:  27; 6HR MAX TEMP:  32;

JOPLIN         CLEAR     41  26  55 S21G28    29.84F
6HR MIN TEMP:  30; 6HR MAX TEMP:  42;

BRANSON        PTCLDY    39  23  52 S9        29.88F

$$
MOZ032>034-039>042-045>050-055>058-069>072-131300-
...CENTRAL MISSOURI...

CITY           SKY/WX    TMP DP  RH WIND       PRES   REMARKS
COLUMBIA       CLEAR     33  21  61 S15       29.71F WCI  23
6HR MIN TEMP:  24; 6HR MAX TEMP:  33;

JEFFERSON CITY CLEAR     34  21  59 S7        29.75F WCI  28
6HR MIN TEMP:  27; 6HR MAX TEMP:  34;

ROLLA          CLEAR     32  19  58 S17       29.77F WCI  21
6HR MIN TEMP:  25; 6HR MAX TEMP:  32;

SEDALIA        CLEAR     40  27  59 SW29G36   29.71F WCI  29
6HR MIN TEMP:  33; 6HR MAX TEMP:  41;

WHITEMAN AFB   CLEAR     36  25  63 SW18G24   29.66F WCI  26
WARRENSBURG    CLEAR     34  27  75 S15       29.70F WCI  24
OSAGE BEACH    CLEAR     34  22  61 SW10      29.77F WCI  26

$$
MOZ051-052-059>065-131300-
...EAST CENTRAL MISSOURI...

CITY           SKY/WX    TMP DP  RH WIND       PRES   REMARKS
ST LOUIS INTL  CLEAR     32  18  56 S12       29.78F WCI  23
6HR MIN TEMP:  27; 6HR MAX TEMP:  33;

SPIRIT OF STL  CLEAR     32  18  56 S10G18    29.77F WCI  24
6HR MIN TEMP:  19; 6HR MAX TEMP:  33;

ST CHARLES     CLEAR     26  15  63 S8        29.77F WCI  18
6HR MIN TEMP:  19; 6HR MAX TEMP:  26;


$$
MOZ072>076-082>087-097>100-106>115-131300-
...SOUTH CENTRAL AND SOUTHEAST MISSOURI...

CITY           SKY/WX    TMP DP  RH WIND       PRES   REMARKS
CAPE GIRARDEAU CLOUDY    27  13  55 SW5       29.95F WCI  22
6HR MIN TEMP:  19; 6HR MAX TEMP:  28;

FARMINGTON     CLEAR     27  16  63 S10       29.86F WCI  17
6HR MIN TEMP:  19; 6HR MAX TEMP:  27;

POPLAR BLUFF   CLEAR     27  19  72 SW6       29.97F WCI  20
6HR MIN TEMP:  23; 6HR MAX TEMP:  28;

WEST PLAINS    CLOUDY    32  15  49 SW9       29.90F WCI  24
6HR MIN TEMP:  24; 6HR MAX TEMP:  32;


$$



USA.gov is the U.S. government's official web portal to all federal, state and local government web resources and services.